Hourly Weather Russkiy Kameshkir

Today, 19 April, Monday

Time Temperature Precipitation Wind Pressure Humidity
00:00 +7°C° 0 mm 4 mps 741 mmHg 67%
01:00 +7°C° 0 mm 4 mps 741 mmHg 69%
02:00 +6°C° 0 mm 4 mps 741 mmHg 72%
03:00 +6°C° 0 mm 5 mps 741 mmHg 72%
04:00 +6°C° 0 mm 5 mps 741 mmHg 73%
05:00 +5°C° 0 mm 5 mps 741 mmHg 74%
06:00 +4°C° 0 mm 6 mps 741 mmHg 76%
07:00 +5°C° 0 mm 6 mps 741 mmHg 71%
08:00 +5°C° 0 mm 6 mps 742 mmHg 67%
09:00 +6°C° 0 mm 7 mps 742 mmHg 64%
10:00 +8°C° 0 mm 7 mps 742 mmHg 60%
11:00 +9°C° 0 mm 7 mps 742 mmHg 57%
12:00 +9°C° 0 mm 8 mps 742 mmHg 53%
13:00 +10°C° 0 mm 8 mps 742 mmHg 53%
14:00 +10°C° 0 mm 7 mps 742 mmHg 52%
15:00 +10°C° 0 mm 7 mps 742 mmHg 52%
16:00 +9°C° 0 mm 7 mps 742 mmHg 56%
17:00 +9°C° 0 mm 7 mps 742 mmHg 60%
18:00 +8°C° 0 mm 6 mps 741 mmHg 64%
19:00 +6°C° 0 mm 7 mps 742 mmHg 69%
20:00 +5°C° 0 mm 7 mps 742 mmHg 74%
21:00 +4°C° 0 mm 8 mps 742 mmHg 78%
22:00 +2°C° 0.2 mm 8 mps 743 mmHg 82%
23:00 +1°C° 0.2 mm 8 mps 743 mmHg 86%

Tomorrow, 20 April, Tuesday

Time Temperature Precipitation Wind Pressure Humidity
00:00 0°C° 0.2 mm 7 mps 743 mmHg 90%
01:00 0°C° 0.1 mm 7 mps 743 mmHg 89%
02:00 0°C° 0.1 mm 8 mps 743 mmHg 88%
03:00 0°C° 0.1 mm 8 mps 743 mmHg 86%
04:00 0°C° 0 mm 8 mps 743 mmHg 86%
05:00 0°C° 0 mm 8 mps 743 mmHg 86%
06:00 0°C° 0 mm 8 mps 743 mmHg 85%
07:00 -1°C° 0.1 mm 8 mps 744 mmHg 85%
08:00 -1°C° 0.1 mm 8 mps 744 mmHg 84%
09:00 -1°C° 0.1 mm 8 mps 744 mmHg 84%
10:00 -1°C° 0 mm 9 mps 744 mmHg 79%
11:00 0°C° 0 mm 9 mps 744 mmHg 74%
12:00 0°C° 0 mm 9 mps 744 mmHg 69%
13:00 +1°C° 0 mm 9 mps 744 mmHg 70%
14:00 +1°C° 0 mm 9 mps 743 mmHg 70%
15:00 +2°C° 0 mm 9 mps 743 mmHg 71%
16:00 +2°C° 0.1 mm 9 mps 742 mmHg 70%
17:00 +2°C° 0.1 mm 10 mps 742 mmHg 69%
18:00 +3°C° 0.1 mm 10 mps 741 mmHg 68%
19:00 +2°C° 0.3 mm 10 mps 741 mmHg 70%
20:00 +2°C° 0.3 mm 11 mps 741 mmHg 71%
21:00 +2°C° 0.3 mm 11 mps 741 mmHg 73%
22:00 +2°C° 0.3 mm 11 mps 740 mmHg 74%
23:00 +2°C° 0.3 mm 12 mps 739 mmHg 74%

Day after tomorrow, 21 April, Wednesday

Time Temperature Precipitation Wind Pressure Humidity
00:00 +2°C° 0.3 mm 12 mps 739 mmHg 74%
01:00 0°C° 0.1 mm 12 mps 738 mmHg 78%
02:00 0°C° 0.1 mm 12 mps 738 mmHg 83%
03:00 +1°C° 0.1 mm 11 mps 738 mmHg 87%
04:00 +1°C° 0.1 mm 11 mps 738 mmHg 87%
05:00 +1°C° 0.1 mm 11 mps 738 mmHg 87%
06:00 -1°C° 0.1 mm 11 mps 738 mmHg 87%
07:00 +1°C° 0.2 mm 11 mps 738 mmHg 89%
08:00 +1°C° 0.2 mm 10 mps 738 mmHg 90%
09:00 +1°C° 0.2 mm 10 mps 739 mmHg 91%
10:00 +2°C° 0 mm 9 mps 739 mmHg 90%
11:00 +2°C° 0 mm 9 mps 739 mmHg 88%
12:00 +3°C° 0 mm 9 mps 739 mmHg 87%
13:00 +4°C° 0 mm 8 mps 740 mmHg 88%
14:00 +4°C° 0 mm 7 mps 740 mmHg 89%
15:00 +5°C° 0 mm 7 mps 740 mmHg 89%
16:00 +4°C° 0 mm 6 mps 740 mmHg 91%
17:00 +4°C° 0 mm 6 mps 741 mmHg 93%
18:00 +3°C° 0 mm 6 mps 741 mmHg 95%
19:00 +3°C° 0 mm 6 mps 741 mmHg 95%
20:00 +3°C° 0 mm 6 mps 741 mmHg 96%
21:00 +3°C° 0 mm 6 mps 742 mmHg 96%
22:00 +3°C° 0.1 mm 6 mps 742 mmHg 96%
23:00 +3°C° 0.1 mm 5 mps 742 mmHg 97%

22 April, Thursday

Time Temperature Precipitation Wind Pressure Humidity
00:00 +3°C° 0.1 mm 5 mps 742 mmHg 97%
01:00 +3°C° 0 mm 5 mps 742 mmHg 96%
02:00 +3°C° 0 mm 5 mps 742 mmHg 96%
03:00 +3°C° 0 mm 5 mps 742 mmHg 95%
04:00 +3°C° 0 mm 5 mps 742 mmHg 94%
05:00 +4°C° 0 mm 4 mps 743 mmHg 93%
06:00 +5°C° 0 mm 4 mps 743 mmHg 92%
07:00 +6°C° 0 mm 4 mps 743 mmHg 89%
08:00 +7°C° 0 mm 4 mps 744 mmHg 86%
09:00 +8°C° 0 mm 5 mps 744 mmHg 82%
10:00 +9°C° 0 mm 5 mps 744 mmHg 73%
11:00 +12°C° 0 mm 5 mps 744 mmHg 65%
12:00 +14°C° 0 mm 5 mps 744 mmHg 56%
13:00 +14°C° 0 mm 5 mps 744 mmHg 52%
14:00 +15°C° 0 mm 4 mps 744 mmHg 47%
15:00 +15°C° 0 mm 4 mps 744 mmHg 43%
16:00 +14°C° 0 mm 3 mps 744 mmHg 48%
17:00 +15°C° 0 mm 2 mps 744 mmHg 53%
18:00 +14°C° 0 mm 2 mps 744 mmHg 58%
19:00 +13°C° 0.1 mm 2 mps 745 mmHg 64%
20:00 +12°C° 0.1 mm 2 mps 745 mmHg 71%
21:00 +9°C° 0.1 mm 3 mps 745 mmHg 77%
22:00 +9°C° 0.1 mm 3 mps 745 mmHg 80%
23:00 +9°C° 0.1 mm 3 mps 745 mmHg 83%

23 April, Friday

Time Temperature Precipitation Wind Pressure Humidity
00:00 +7°C° 0.1 mm 4 mps 745 mmHg 85%
01:00 +8°C° 0 mm 3 mps 745 mmHg 87%
02:00 +7°C° 0 mm 3 mps 745 mmHg 88%
03:00 +7°C° 0 mm 3 mps 745 mmHg 90%
04:00 +7°C° 0 mm 3 mps 745 mmHg 90%
05:00 +7°C° 0 mm 3 mps 745 mmHg 89%
06:00 +7°C° 0 mm 2 mps 745 mmHg 89%
07:00 +8°C° 0 mm 2 mps 745 mmHg 84%
08:00 +9°C° 0 mm 2 mps 745 mmHg 79%
09:00 +10°C° 0 mm 2 mps 745 mmHg 74%
10:00 +11°C° 0.1 mm 3 mps 745 mmHg 70%
11:00 +12°C° 0.1 mm 3 mps 745 mmHg 66%
12:00 +13°C° 0.1 mm 3 mps 744 mmHg 63%
13:00 +13°C° 0.3 mm 3 mps 744 mmHg 62%
14:00 +13°C° 0.3 mm 3 mps 744 mmHg 61%
15:00 +13°C° 0.3 mm 3 mps 744 mmHg 60%
16:00 +13°C° 0.2 mm 2 mps 744 mmHg 64%
17:00 +13°C° 0.2 mm 2 mps 743 mmHg 68%
18:00 +12°C° 0.2 mm 2 mps 743 mmHg 72%
19:00 +12°C° 0 mm 1 mps 743 mmHg 74%
20:00 +11°C° 0 mm 1 mps 743 mmHg 77%
21:00 +10°C° 0 mm 1 mps 743 mmHg 80%
22:00 +10°C° 0 mm 1 mps 743 mmHg 82%
23:00 +9°C° 0 mm 1 mps 742 mmHg 84%

24 April, Saturday

Time Temperature Precipitation Wind Pressure Humidity
00:00 +9°C° 0 mm 1 mps 742 mmHg 86%
01:00 +8°C° 0 mm 1 mps 742 mmHg 87%
02:00 +8°C° 0 mm 1 mps 742 mmHg 88%
03:00 +7°C° 0 mm 0 mps 742 mmHg 89%
04:00 +8°C° 0 mm 1 mps 742 mmHg 89%
05:00 +8°C° 0 mm 1 mps 742 mmHg 88%
06:00 +8°C° 0 mm 1 mps 742 mmHg 88%
07:00 +9°C° 0 mm 1 mps 742 mmHg 81%
08:00 +11°C° 0 mm 1 mps 741 mmHg 75%
09:00 +12°C° 0 mm 1 mps 741 mmHg 69%
10:00 +13°C° 0 mm 2 mps 741 mmHg 63%
11:00 +14°C° 0 mm 2 mps 741 mmHg 58%
12:00 +14°C° 0 mm 3 mps 741 mmHg 52%
13:00 +16°C° 0 mm 3 mps 741 mmHg 51%
14:00 +16°C° 0 mm 3 mps 741 mmHg 51%
15:00 +16°C° 0 mm 3 mps 740 mmHg 50%
16:00 +14°C° 0.3 mm 3 mps 740 mmHg 56%
17:00 +14°C° 0.3 mm 3 mps 740 mmHg 63%
18:00 +14°C° 0.3 mm 2 mps 740 mmHg 69%
19:00 +13°C° 0.2 mm 2 mps 740 mmHg 73%
20:00 +12°C° 0.2 mm 2 mps 740 mmHg 76%
21:00 +10°C° 0.2 mm 2 mps 740 mmHg 80%
22:00 +10°C° 0.1 mm 2 mps 740 mmHg 81%
23:00 +9°C° 0.1 mm 2 mps 741 mmHg 82%
Show more